ANIK F3 1 31102U 07009A 21060.72471904 -.00000008 00000-0 00000+0 0 9994 2 31102 0.0243 149.2587 0002365 208.2539 304.4113 1.00269341 50949 BREEZE-M DEB [TANK] 1 31103U 07009B 21060.32901142 .00001763 00000-0 39991-3 0 9996 2 31103 49.4952 37.1402 5516524 17.6459 355.6477 4.77586433237242 BREEZE-M R/B 1 31104U 07009C 21060.70901656 -.00000233 00000-0 00000-0 0 9997 2 31104 10.7845 186.7211 5690166 306.9143 17.7246 1.96451766 99731